EW8749 Weather Reports


Display with metric or nautical units.
time (UTC)temp
F
wind
direction
speed
MPH
gust
MPH
rain 1hr
in
rain 24hr
in
rain mn
in
humidity
%
barometer
mb
20260504050015 54 288 0.0 7.0 0.00 0.59 0.56 89 1014.0
20260504044531 54 258 1.0 4.0 0.01 0.59 0.56 89 1013.9
20260504043014 54 272 2.0 6.0 0.01 0.59 0.56 90 1014.1
20260504041507 55 229 2.0 7.0 0.01 0.59 0.56 90 1014.1
20260504040007 55 251 1.0 10.0 0.01 0.59 0.56 92 1014.0
20260504034506 55 256 4.0 10.0 0.00 0.57 0.55 91 1014.0
20260504033002 56 310 4.0 12.0 0.00 0.57 0.55 91 1013.9
20260504031600 57 289 4.0 8.0 0.00 0.57 0.55 91 1013.7
20260504030059 57 239 3.0 10.0 0.00 0.57 0.55 91 1013.7
20260504024606 57 229 3.0 10.0 0.00 0.57 0.55 92 1013.8
20260504023055 57 312 1.0 8.0 0.06 0.57 0.55 92 1014.2
20260504021553 57 247 1.0 6.0 0.07 0.57 0.55 92 1014.4
20260504020051 57 289 2.0 5.0 0.09 0.57 0.55 92 1014.8
20260504014552 57 261 2.0 9.0 0.09 0.57 0.55 92 1014.7
20260504013051 57 260 3.0 10.0 0.03 0.53 0.50 92 1015.2
20260504011550 58 337 3.0 10.0 0.04 0.51 0.48 91 1015.1
20260504010053 59 310 4.0 11.0 0.03 0.50 0.46 91 1015.2
20260504004543 58 260 3.0 11.0 0.03 0.50 0.46 91 1015.3
20260504003042 58 324 3.0 11.0 0.03 0.50 0.46 91 1015.4
20260504001600 59 303 4.0 11.0 0.00 0.46 0.43 90 1015.5
20260503234536 59 293 3.0 12.0 0.00 0.46 0.43 91 1015.3
20260503233034 59 287 5.0 17.0 0.01 0.46 0.43 91 1015.5
20260503231532 59 313 7.0 14.0 0.09 0.46 0.43 91 1015.6
20260503230036 58 289 4.0 13.0 0.14 0.46 0.43 92 1015.5
20260503224530 58 17 2.0 9.0 0.14 0.46 0.43 92 1015.5
20260503223029 58 299 4.0 15.0 0.17 0.45 0.42 92 1015.4
20260503221532 58 332 5.0 13.0 0.09 0.36 0.33 92 1015.5
20260503220027 58 301 4.0 9.0 0.05 0.32 0.28 92 1015.5
20260503071524 63 238 1.0 0.0 0.00 0.00 0.02 79 1017.1